Time,TemperatureF,DewpointF,PressureIn,WindDirection,WindDirectionDegrees,WindSpeedMPH,WindSpeedGustMPH,Humidity,HourlyPrecipIn,Conditions,Clouds,dailyrainin,SoftwareType,DateUTC
2013-09-08 00:04:00,73.9,73.3,29.79,WNW,292,0.0,-999.0,98,-99.99,,,0.00,Acu-Link.com,2013-09-08 04:04:00,
2013-09-08 00:20:00,73.9,73.3,29.79,WNW,292,0.0,-999.0,98,-99.99,,,0.00,Acu-Link.com,2013-09-08 04:20:00,
2013-09-08 00:35:00,73.8,73.2,29.78,NW,315,0.0,-999.0,98,-99.99,,,0.00,Acu-Link.com,2013-09-08 04:35:00,
2013-09-08 00:50:00,73.8,73.2,29.79,NW,315,0.0,-999.0,98,-99.99,,,0.00,Acu-Link.com,2013-09-08 04:50:00,
2013-09-08 01:06:00,73.9,73.3,29.79,WNW,292,0.0,-999.0,98,-99.99,,,0.00,Acu-Link.com,2013-09-08 05:06:00,
2013-09-08 01:21:00,73.9,73.3,29.78,WNW,292,0.0,-999.0,98,-99.99,,,0.00,Acu-Link.com,2013-09-08 05:21:00,
2013-09-08 01:36:00,73.9,73.3,29.78,WNW,292,0.0,-999.0,98,-99.99,,,0.00,Acu-Link.com,2013-09-08 05:36:00,
2013-09-08 01:52:00,74.1,73.5,29.79,North,0,0.0,-999.0,98,-99.99,,,0.00,Acu-Link.com,2013-09-08 05:52:00,
2013-09-08 02:07:00,74.1,73.5,29.78,NNW,337,0.0,-999.0,98,-99.99,,,0.00,Acu-Link.com,2013-09-08 06:07:00,
2013-09-08 02:22:00,74.1,73.5,29.78,ENE,67,0.0,-999.0,98,-99.99,,,0.00,Acu-Link.com,2013-09-08 06:22:00,
2013-09-08 02:37:00,74.3,73.7,29.78,NE,45,2.2,-999.0,98,-99.99,,,0.00,Acu-Link.com,2013-09-08 06:37:00,
2013-09-08 02:53:00,74.3,73.7,29.77,North,0,0.0,-999.0,98,-99.99,,,0.00,Acu-Link.com,2013-09-08 06:53:00,
2013-09-08 03:08:00,74.1,73.5,29.77,NW,315,1.7,-999.0,98,-99.99,,,0.00,Acu-Link.com,2013-09-08 07:08:00,
2013-09-08 03:23:00,74.5,73.9,29.76,North,0,1.7,-999.0,98,-99.99,,,0.00,Acu-Link.com,2013-09-08 07:23:00,
2013-09-08 03:38:00,75.0,74.4,29.76,ESE,112,6.8,-999.0,98,-99.99,,,0.00,Acu-Link.com,2013-09-08 07:38:00,
2013-09-08 03:53:00,75.6,75.0,29.76,ESE,112,4.7,-999.0,98,-99.99,,,0.00,Acu-Link.com,2013-09-08 07:53:00,
2013-09-08 04:10:00,75.7,75.1,29.76,East,90,2.7,-999.0,98,-99.99,,,0.00,Acu-Link.com,2013-09-08 08:10:00,
2013-09-08 04:26:00,75.7,75.1,29.75,NNE,22,3.7,-999.0,98,-99.99,,,0.00,Acu-Link.com,2013-09-08 08:26:00,
2013-09-08 04:42:00,75.6,75.0,29.75,NE,45,2.2,-999.0,98,-99.99,,,0.00,Acu-Link.com,2013-09-08 08:42:00,
2013-09-08 04:57:00,75.0,74.4,29.75,NE,45,2.2,-999.0,98,-99.99,,,0.00,Acu-Link.com,2013-09-08 08:57:00,
2013-09-08 05:12:00,75.0,74.4,29.75,North,0,2.7,-999.0,98,-99.99,,,0.00,Acu-Link.com,2013-09-08 09:12:00,
2013-09-08 05:28:00,75.6,75.0,29.75,SE,135,5.8,-999.0,98,-99.99,,,0.00,Acu-Link.com,2013-09-08 09:28:00,
2013-09-08 05:43:00,75.2,74.6,29.75,ESE,112,4.7,-999.0,98,-99.99,,,0.00,Acu-Link.com,2013-09-08 09:43:00,
2013-09-08 05:58:00,75.0,74.4,29.75,ESE,112,4.7,-999.0,98,-99.99,,,0.00,Acu-Link.com,2013-09-08 09:58:00,
2013-09-08 06:13:00,74.7,74.1,29.75,ESE,112,7.8,-999.0,98,-99.99,,,0.00,Acu-Link.com,2013-09-08 10:13:00,
2013-09-08 06:28:00,74.7,74.1,29.76,East,90,5.3,-999.0,98,-99.99,,,0.00,Acu-Link.com,2013-09-08 10:28:00,
2013-09-08 06:43:00,74.5,73.9,29.76,East,90,3.7,-999.0,98,-99.99,,,0.00,Acu-Link.com,2013-09-08 10:43:00,
2013-09-08 06:58:00,74.1,73.5,29.76,ESE,112,6.3,-999.0,98,-99.99,,,0.00,Acu-Link.com,2013-09-08 10:58:00,
2013-09-08 07:14:00,74.3,73.7,29.77,ESE,112,4.2,-999.0,98,-99.99,,,0.00,Acu-Link.com,2013-09-08 11:14:00,
2013-09-08 07:29:00,74.8,74.2,29.76,SE,135,5.3,-999.0,98,-99.99,,,0.00,Acu-Link.com,2013-09-08 11:29:00,
2013-09-08 07:44:00,75.0,74.4,29.77,ESE,112,5.3,-999.0,98,-99.99,,,0.00,Acu-Link.com,2013-09-08 11:44:00,
2013-09-08 07:59:00,75.2,74.6,29.77,ESE,112,3.2,-999.0,98,-99.99,,,0.00,Acu-Link.com,2013-09-08 11:59:00,
2013-09-08 08:14:00,75.7,75.1,29.78,ESE,112,3.7,-999.0,98,-99.99,,,0.00,Acu-Link.com,2013-09-08 12:14:00,
2013-09-08 08:29:00,76.5,75.9,29.78,ESE,112,5.8,-999.0,98,-99.99,,,0.00,Acu-Link.com,2013-09-08 12:29:00,
2013-09-08 08:45:00,76.8,76.2,29.78,SE,135,4.7,-999.0,98,-99.99,,,0.00,Acu-Link.com,2013-09-08 12:45:00,
2013-09-08 09:00:00,77.7,77.1,29.78,ESE,112,6.8,-999.0,98,-99.99,,,0.00,Acu-Link.com,2013-09-08 13:00:00,
2013-09-08 09:15:00,78.1,77.5,29.79,ESE,112,5.3,-999.0,98,-99.99,,,0.00,Acu-Link.com,2013-09-08 13:15:00,
2013-09-08 09:30:00,78.4,77.8,29.79,ESE,112,6.3,-999.0,98,-99.99,,,0.00,Acu-Link.com,2013-09-08 13:30:00,
2013-09-08 09:45:00,78.4,77.8,29.79,SE,135,4.7,-999.0,98,-99.99,,,0.00,Acu-Link.com,2013-09-08 13:45:00,
2013-09-08 10:01:00,79.9,79.3,29.79,SE,135,7.3,-999.0,98,-99.99,,,0.00,Acu-Link.com,2013-09-08 14:01:00,
2013-09-08 10:16:00,80.8,80.2,29.79,ESE,112,5.8,-999.0,98,-99.99,,,0.00,Acu-Link.com,2013-09-08 14:16:00,
2013-09-08 10:31:00,82.2,81.6,29.79,South,180,6.8,-999.0,98,-99.99,,,0.00,Acu-Link.com,2013-09-08 14:31:00,
2013-09-08 10:46:00,83.1,82.5,29.80,South,180,8.9,-999.0,98,-99.99,,,0.00,Acu-Link.com,2013-09-08 14:46:00,
2013-09-08 11:01:00,83.7,83.1,29.79,SSE,157,7.3,-999.0,98,-99.99,,,0.00,Acu-Link.com,2013-09-08 15:01:00,
2013-09-08 11:17:00,83.5,82.9,29.79,South,180,7.3,-999.0,98,-99.99,,,0.00,Acu-Link.com,2013-09-08 15:17:00,
2013-09-08 11:32:00,84.4,83.8,29.79,SE,135,6.8,-999.0,98,-99.99,,,0.00,Acu-Link.com,2013-09-08 15:32:00,
2013-09-08 11:47:00,85.3,84.7,29.79,SSE,157,4.2,-999.0,98,-99.99,,,0.00,Acu-Link.com,2013-09-08 15:47:00,
2013-09-08 12:02:00,86.0,85.4,29.79,South,180,3.7,-999.0,98,-99.99,,,0.00,Acu-Link.com,2013-09-08 16:02:00,
2013-09-08 12:17:00,86.2,85.2,29.77,SSE,157,5.8,-999.0,97,-99.99,,,0.00,Acu-Link.com,2013-09-08 16:17:00,
2013-09-08 12:32:00,87.1,82.7,29.78,SSW,202,4.7,-999.0,87,-99.99,,,0.00,Acu-Link.com,2013-09-08 16:32:00,
2013-09-08 12:48:00,87.1,82.4,29.78,South,180,4.7,-999.0,86,-99.99,,,0.00,Acu-Link.com,2013-09-08 16:48:00,
2013-09-08 13:03:00,87.3,80.7,29.77,South,180,6.8,-999.0,81,-99.99,,,0.00,Acu-Link.com,2013-09-08 17:03:00,
2013-09-08 13:18:00,88.0,79.9,29.77,SSE,157,3.7,-999.0,77,-99.99,,,0.00,Acu-Link.com,2013-09-08 17:18:00,
2013-09-08 13:34:00,88.0,79.1,29.76,South,180,3.7,-999.0,75,-99.99,,,0.00,Acu-Link.com,2013-09-08 17:34:00,
2013-09-08 13:49:00,89.6,78.5,29.76,SE,135,4.7,-999.0,70,-99.99,,,0.00,Acu-Link.com,2013-09-08 17:49:00,
2013-09-08 14:04:00,89.1,78.0,29.75,SE,135,4.2,-999.0,70,-99.99,,,0.00,Acu-Link.com,2013-09-08 18:04:00,
2013-09-08 14:19:00,91.0,78.5,29.74,South,180,2.2,-999.0,67,-99.99,,,0.00,Acu-Link.com,2013-09-08 18:19:00,
2013-09-08 14:34:00,93.2,79.2,29.73,ESE,112,4.7,-999.0,64,-99.99,,,0.00,Acu-Link.com,2013-09-08 18:34:00,
2013-09-08 14:50:00,92.3,79.3,29.73,ESE,112,3.2,-999.0,66,-99.99,,,0.00,Acu-Link.com,2013-09-08 18:50:00,
2013-09-08 15:05:00,94.1,77.5,29.72,South,180,3.2,-999.0,59,-99.99,,,0.00,Acu-Link.com,2013-09-08 19:05:00,
2013-09-08 15:20:00,92.7,76.2,29.72,South,180,6.8,-999.0,59,-99.99,,,0.00,Acu-Link.com,2013-09-08 19:20:00,
2013-09-08 15:36:00,92.5,76.6,29.71,SSW,202,3.7,-999.0,60,-99.99,,,0.00,Acu-Link.com,2013-09-08 19:36:00,
2013-09-08 15:51:00,93.4,76.4,29.71,SE,135,7.8,-999.0,58,-99.99,,,0.00,Acu-Link.com,2013-09-08 19:51:00,
2013-09-08 16:06:00,92.1,76.2,29.70,South,180,3.2,-999.0,60,-99.99,,,0.00,Acu-Link.com,2013-09-08 20:06:00,
2013-09-08 16:21:00,90.3,74.5,29.70,SE,135,4.7,-999.0,60,-99.99,,,0.00,Acu-Link.com,2013-09-08 20:21:00,
2013-09-08 16:36:00,93.4,76.9,29.69,SSE,157,5.8,-999.0,59,-99.99,,,0.00,Acu-Link.com,2013-09-08 20:36:00,
2013-09-08 16:51:00,92.1,75.2,29.70,ESE,112,6.3,-999.0,58,-99.99,,,0.00,Acu-Link.com,2013-09-08 20:51:00,
2013-09-08 17:06:00,91.8,75.4,29.69,ESE,112,6.3,-999.0,59,-99.99,,,0.00,Acu-Link.com,2013-09-08 21:06:00,
2013-09-08 17:21:00,89.8,75.5,29.70,ESE,112,9.4,-999.0,63,-99.99,,,0.00,Acu-Link.com,2013-09-08 21:21:00,
2013-09-08 17:37:00,88.9,75.6,29.69,SE,135,6.3,-999.0,65,-99.99,,,0.00,Acu-Link.com,2013-09-08 21:37:00,
2013-09-08 17:52:00,88.5,75.7,29.69,SE,135,7.3,-999.0,66,-99.99,,,0.00,Acu-Link.com,2013-09-08 21:52:00,
2013-09-08 18:07:00,86.0,78.3,29.69,SE,135,11.9,-999.0,78,-99.99,,,0.00,Acu-Link.com,2013-09-08 22:07:00,
2013-09-08 18:22:00,85.1,78.6,29.70,SE,135,10.9,-999.0,81,-99.99,,,0.00,Acu-Link.com,2013-09-08 22:22:00,
2013-09-08 18:37:00,84.4,78.3,29.71,ESE,112,8.9,-999.0,82,-99.99,,,0.00,Acu-Link.com,2013-09-08 22:37:00,
2013-09-08 18:52:00,84.0,83.4,29.71,ESE,112,5.8,-999.0,98,-99.99,,,0.00,Acu-Link.com,2013-09-08 22:52:00,
2013-09-08 19:07:00,84.0,83.4,29.71,SE,135,6.3,-999.0,98,-99.99,,,0.00,Acu-Link.com,2013-09-08 23:07:00,
2013-09-08 19:22:00,84.0,83.4,29.71,ESE,112,7.8,-999.0,98,-99.99,,,0.00,Acu-Link.com,2013-09-08 23:22:00,
2013-09-08 19:38:00,83.7,83.1,29.71,SSE,157,9.4,-999.0,98,-99.99,,,0.00,Acu-Link.com,2013-09-08 23:38:00,
2013-09-08 19:53:00,83.3,82.7,29.73,SSW,202,5.8,-999.0,98,-99.99,,,0.00,Acu-Link.com,2013-09-08 23:53:00,
2013-09-08 20:08:00,82.0,81.4,29.74,SW,225,3.7,-999.0,98,-99.99,,,0.00,Acu-Link.com,2013-09-09 00:08:00,
2013-09-08 20:23:00,81.7,81.1,29.74,SSW,202,6.8,-999.0,98,-99.99,,,0.00,Acu-Link.com,2013-09-09 00:23:00,
2013-09-08 20:38:00,81.5,80.9,29.75,SSW,202,4.2,-999.0,98,-99.99,,,0.00,Acu-Link.com,2013-09-09 00:38:00,
2013-09-08 20:54:00,81.5,80.9,29.76,SSW,202,4.2,-999.0,98,-99.99,,,0.00,Acu-Link.com,2013-09-09 00:54:00,
2013-09-08 21:09:00,81.0,80.4,29.76,SSW,202,4.7,-999.0,98,-99.99,,,0.00,Acu-Link.com,2013-09-09 01:09:00,
2013-09-08 21:24:00,81.0,80.4,29.77,SSW,202,3.7,-999.0,98,-99.99,,,0.00,Acu-Link.com,2013-09-09 01:24:00,
2013-09-08 21:39:00,80.8,80.2,29.78,South,180,6.3,-999.0,98,-99.99,,,0.00,Acu-Link.com,2013-09-09 01:39:00,
2013-09-08 21:54:00,81.1,80.5,29.79,SSE,157,4.7,-999.0,98,-99.99,,,0.00,Acu-Link.com,2013-09-09 01:54:00,
2013-09-08 22:10:00,81.0,80.4,29.80,SSE,157,6.3,-999.0,98,-99.99,,,0.00,Acu-Link.com,2013-09-09 02:10:00,
2013-09-08 22:25:00,80.6,80.0,29.80,SSE,157,6.3,-999.0,98,-99.99,,,0.00,Acu-Link.com,2013-09-09 02:25:00,
2013-09-08 22:40:00,80.2,79.6,29.81,SSE,157,7.8,-999.0,98,-99.99,,,0.00,Acu-Link.com,2013-09-09 02:40:00,
2013-09-08 22:56:00,79.9,79.3,29.80,South,180,4.2,-999.0,98,-99.99,,,0.00,Acu-Link.com,2013-09-09 02:56:00,
2013-09-08 23:11:00,79.9,79.3,29.80,SSE,157,6.3,-999.0,98,-99.99,,,0.00,Acu-Link.com,2013-09-09 03:11:00,
2013-09-08 23:26:00,79.5,78.9,29.81,South,180,4.2,-999.0,98,-99.99,,,0.00,Acu-Link.com,2013-09-09 03:26:00,
2013-09-08 23:41:00,79.3,78.7,29.80,ESE,112,3.7,-999.0,98,-99.99,,,0.00,Acu-Link.com,2013-09-09 03:41:00,
2013-09-08 23:56:00,79.0,78.4,29.81,SSW,202,4.7,-999.0,98,-99.99,,,0.00,Acu-Link.com,2013-09-09 03:56:00,